1367020825125,0.914405
1367020885125,0.912707
1367020945125,0.909672
1367021005125,0.915474
1367021065125,0.913457
1367021125125,0.912446
1367021185125,0.916255
1367021245125,0.906334
1367021305125,0.914942
1367021365125,0.912886
1367021425125,0.913465
1367021485125,0.917289
1367021545125,0.916841
1367021605125,0.913969
1367021665125,0.903407
1367021725125,0.898702
1367021785125,0.895998
1367021845125,0.899396
1367021905125,0.901977
1367021965125,0.904862
1367022025125,0.897022
1367022085125,0.899726
1367022145125,0.897309
1367022205125,0.895743
1367022265125,0.896590
1367022325125,0.900929
1367022385125,0.896629
1367022445125,0.905406
1367022505125,0.905251
1367022565125,0.908089
1367022625125,0.900164
1367022685125,0.906699
1367022745125,0.899626
1367022805125,0.909624
1367022865125,0.913636
1367022925125,0.908499
1367022985125,0.909685
1367023045125,0.914999
1367023105125,0.914964
1367023165125,0.914794
1367023225125,0.912100
1367023285125,0.917094
1367023345125,0.920299
1367023405125,0.911814
1367023465125,0.922286
1367023525125,0.919542
1367023585125,0.916387
1367023645125,0.907864
1367023705125,0.919296
1367023765125,0.921682
1367023825125,0.918553
1367023885125,0.917949
1367023945125,0.919508
1367024005125,0.915055
1367024065125,0.914454
1367024125125,0.911993
1367024185125,0.919908
1367024245125,0.914088
1367024305125,0.911645
1367024365125,0.919236
1367024425136,0.915881
1367024485136,0.908935
1367024545136,0.905470
1367024605136,0.903480
1367024665136,0.904393
1367024725136,0.911146
1367024785136,0.907463
1367024845136,0.892832
1367024905136,0.903315
1367024965136,0.904902
1367025025136,0.915867
1367025085136,0.904263
1367025145136,0.902357
1367025205136,0.904423
1367025265136,0.899463
1367025325136,0.898121
1367025385136,0.907070
1367025445136,0.902758
1367025505136,0.907498
1367025565136,0.902940
1367025625136,0.901693
1367025685136,0.906979
1367025745136,0.894063
1367025805136,0.896458
1367025865136,0.906939
1367025925136,0.903731
1367025985136,0.900118
1367026045136,0.898978
1367026105136,0.908304
1367026165136,0.899342
1367026225136,0.905840
1367026285136,0.903595
1367026345136,0.904295
1367026405136,0.906891
1367026465136,0.917942
1367026525136,0.913069
1367026585136,0.909054
1367026645136,0.910347
1367026705136,0.911328
1367026765136,0.913086
1367026825136,0.916650
1367026885136,0.908739
1367026945136,0.906976
1367027005136,0.903943
1367027065136,0.905570
1367027125136,0.914585
1367027185136,0.902172
1367027245136,0.904738
1367027305136,0.900692
1367027365136,0.903200
1367027425136,0.906955
1367027485136,0.905228
1367027545136,0.912982
1367027605136,0.909948
1367027665136,0.906022
1367027725136,0.916655
1367027785136,0.910192
1367027845136,0.913369
1367027905136,0.916468
1367027965136,0.918220
1367028025147,0.920291
1367028085147,0.909369
1367028145147,0.915980
1367028205147,0.922742
1367028265147,0.922736
1367028325147,0.926892
1367028385147,0.927574
1367028445147,0.921173
1367028505147,0.921158
1367028565147,0.923810
1367028625147,0.923550
1367028685147,0.931534
1367028745147,0.926088
1367028805147,0.923776
1367028865147,0.926355
1367028925147,0.923404
1367028985147,0.926552
1367029045147,0.930878
1367029105147,0.944361
1367029165147,0.943327
1367029225147,0.942810
1367029285147,0.943761
1367029345147,0.948441
1367029405147,0.953405
1367029465147,0.950501
1367029525147,0.954160
1367029585147,0.956472
1367029645147,0.956415
1367029705147,0.959356
1367029765147,0.947476
1367029825147,0.950975
1367029885147,0.952817
1367029945147,0.946010
1367030005147,0.952770
1367030065147,0.949734
1367030125147,0.936613
1367030185147,0.941035
1367030245147,0.938481
1367030305147,0.935514
1367030365147,0.939397
1367030425147,0.939212
1367030485147,0.938732
1367030545147,0.934309
1367030605147,0.937240
1367030665147,0.938230
1367030725147,0.935768
1367030785147,0.932236
1367030845147,0.930305
1367030905147,0.938956
1367030965147,0.943092
1367031025147,0.944159
1367031085147,0.949832
1367031145147,0.949719
1367031205147,0.960155
1367031265147,0.974901
1367031325147,0.987709
1367031385147,0.990573
1367031445147,1.00097
1367031505147,1.01142
1367031565147,1.00184
1367031625157,0.999768
1367031685157,1.00648
1367031745157,1.00185
1367031805157,1.00328
1367031865157,0.990428
1367031925157,0.991766
1367031985157,0.991701
1367032045157,0.990006
1367032105157,0.980470
1367032165157,0.984332
1367032225157,0.973833
1367032285157,0.971431
1367032345157,0.975171
1367032405157,0.966523
1367032465157,0.978861
1367032525157,0.963946
1367032585157,0.956351
1367032645157,0.952658
1367032705157,0.963247
1367032765157,0.959887
1367032825157,0.945070
1367032885157,0.953090
1367032945157,0.952224
1367033005157,0.966689
1367033065157,0.952355
1367033125157,0.961052
1367033185157,0.957282
1367033245157,0.964872
1367033305157,0.961675
1367033365157,0.969336
1367033425157,0.961755
1367033485157,0.961756
1367033545157,0.962073
1367033605157,0.966102
1367033665157,0.960417
1367033725157,0.960533
1367033785157,0.973712
1367033845157,0.968203
1367033905157,0.966201
1367033965157,0.974518
1367034025157,0.972623
1367034085157,0.971331
1367034145157,0.972255
1367034205157,0.967950
1367034265157,0.964889
1367034325157,0.966090
1367034385157,0.964033
1367034445157,0.966361
1367034505157,0.961327
1367034565157,0.963881
1367034625157,0.954698
1367034685157,0.961165
1367034745157,0.962992
1367034805157,0.957646
1367034865157,0.953106
1367034925157,0.954831
1367034985157,0.955617
1367035045157,0.958842
1367035105157,0.958903
1367035165157,0.949134
1367035225168,0.959161
1367035285168,0.962209
1367035345168,0.963201
1367035405168,0.952916
1367035465168,0.957836
1367035525168,0.964540
1367035585168,0.949395
1367035645168,0.961964
1367035705168,0.959024
1367035765168,0.969876
1367035825168,0.955445
1367035885168,0.962001
1367035945168,0.951299
1367036005168,0.958044
1367036065168,0.948558
1367036125168,0.945103
1367036185168,0.951919
1367036245168,0.939884
1367036305168,0.944760
1367036365168,0.947197
1367036425168,0.938314
1367036485168,0.935855
1367036545168,0.933653
1367036605168,0.937634
1367036665168,0.936905
1367036725168,0.931898
1367036785168,0.931139
1367036845168,0.925754
1367036905168,0.923522
1367036965168,0.923959
1367037025168,0.923704
1367037085168,0.932054
1367037145168,0.923996
1367037205168,0.922711
1367037265168,0.924684
1367037325168,0.922800
1367037385168,0.924461
1367037445168,0.925896
1367037505168,0.925984
1367037565168,0.925115
1367037625168,0.922373
1367037685168,0.922460
1367037745168,0.925981
1367037805168,0.930407
1367037865168,0.922343
1367037925168,0.931290
1367037985168,0.930256
1367038045168,0.934398
1367038105168,0.930829
1367038165168,0.932069
1367038225168,0.929946
1367038285168,0.930024
1367038345168,0.923635
1367038405168,0.927321
1367038465168,0.925093
1367038525168,0.931586
1367038585168,0.923090
1367038645168,0.923669
1367038705168,0.923897
1367038765168,0.926679
1367038825178,0.932276
1367038885178,0.938504
1367038945178,0.934318
1367039005178,0.941985
1367039065178,0.929285
1367039125178,0.932756
1367039185178,0.930724
1367039245178,0.926747
1367039305178,0.930318
1367039365178,0.923587
1367039425178,0.925826
1367039485178,0.924523
1367039545178,0.920326
1367039605178,0.923686
1367039665178,0.925406
1367039725178,0.927334
1367039785178,0.933084
1367039845178,0.930200
1367039905178,0.935774
1367039965178,0.928119
1367040025178,0.926904
1367040085178,0.935777
1367040145178,0.930771
1367040205178,0.923210
1367040265178,0.926825
1367040325178,0.924292
1367040385178,0.926641
1367040445178,0.936410
1367040505178,0.936784
1367040565178,0.936054
1367040625178,0.946479
1367040685178,0.939999
1367040745178,0.945425
1367040805178,0.951033
1367040865178,0.952546
1367040925178,0.942211
1367040985178,0.949145
1367041045178,0.946641
1367041105178,0.947383
1367041165178,0.956048
1367041225178,0.950185
1367041285178,0.957816
1367041345178,0.961782
1367041405178,0.956928
1367041465178,0.960229
1367041525178,0.962408
1367041585178,0.962520
1367041645178,0.970211
1367041705178,0.964648
1367041765178,0.971500
1367041825178,0.967036
1367041885178,0.966156
1367041945178,0.957207
1367042005178,0.968660
1367042065178,0.961979
1367042125178,0.961188
1367042185178,0.967591
1367042245178,0.955943
1367042305178,0.957964
1367042365178,0.949908
1367042425189,0.954552
1367042485189,0.954356
1367042545189,0.951697
1367042605189,0.949439
1367042665189,0.953842
1367042725189,0.944484
1367042785189,0.951080
1367042845189,0.950076
1367042905189,0.952688
1367042965189,0.950301
1367043025189,0.956034
1367043085189,0.959185
1367043145189,0.947339
1367043205189,0.939540
1367043265189,0.950279
1367043325189,0.956172
1367043385189,0.951273
1367043445189,0.968278
1367043505189,0.950492
1367043565189,0.959480
1367043625189,0.960447
1367043685189,0.956848
1367043745189,0.966913
1367043805189,0.971807
1367043865189,0.977377
1367043925189,0.971882
1367043985189,0.982397
1367044045189,0.975443
1367044105189,0.987374
1367044165189,0.981744
1367044225189,0.988684
1367044285189,0.983914
1367044345189,0.984864
1367044405189,0.988497
1367044465189,0.980887
1367044525189,0.977380
1367044585189,0.977479
1367044645189,0.970545
1367044705189,0.964011
1367044765189,0.969655
1367044825189,0.963916
1367044885189,0.963763
1367044945189,0.963584
1367045005189,0.950947
1367045065189,0.963437
1367045125189,0.950505
1367045185189,0.943667
1367045245189,0.943787
1367045305189,0.940977
1367045365189,0.944723
1367045425189,0.935993
1367045485189,0.947560
1367045545189,0.932082
1367045605189,0.932160
1367045665189,0.934770
1367045725189,0.932684
1367045785189,0.932119
1367045845189,0.937078
1367045905189,0.929771
1367045965189,0.932725
1367046025199,0.924561
1367046085199,0.932271
1367046145199,0.934768
1367046205199,0.929691
1367046265199,0.928971
1367046325199,0.926959
1367046385199,0.914603
1367046445199,0.923781
1367046505199,0.924589
1367046565199,0.923324
1367046625199,0.925454
1367046685199,0.916748
1367046745199,0.918896
1367046805199,0.917538
1367046865199,0.913446
1367046925199,0.917840
1367046985199,0.911052
1367047045199,0.912641
1367047105199,0.914148
1367047165199,0.907136
1367047225199,0.904426
1367047285199,0.905900
1367047345199,0.905905
1367047405199,0.904958
1367047465199,0.908066
1367047525199,0.911984
1367047585199,0.907987
1367047645199,0.903409
1367047705199,0.913066
1367047765199,0.913923
1367047825199,0.918810
1367047885199,0.921482
1367047945199,0.924546
1367048005199,0.925884
1367048065199,0.926162
1367048125199,0.931292
1367048185199,0.925274
1367048245199,0.931390
1367048305199,0.932884
1367048365199,0.932579
1367048425199,0.925721
1367048485199,0.925503
1367048545199,0.913300
1367048605199,0.929015
1367048665199,0.916899
1367048725199,0.921272
1367048785199,0.915356
1367048845199,0.918907
1367048905199,0.922148
1367048965199,0.920600
1367049025199,0.924698
1367049085199,0.919670
1367049145199,0.918657
1367049205199,0.921474
1367049265199,0.914071
1367049325199,0.914594
1367049385199,0.921645
1367049445199,0.919690
1367049505199,0.916671
1367049565199,0.918152
1367049625209,0.913448
1367049685209,0.910403
1367049745209,0.910018
1367049805209,0.909666
1367049865209,0.907067
1367049925209,0.919289
1367049985209,0.912515
1367050045209,0.911369
1367050105209,0.918150
1367050165209,0.914804
1367050225209,0.919059
1367050285209,0.912796
1367050345209,0.902017
1367050405209,0.917247
1367050465209,0.916336
1367050525209,0.916816
1367050585209,0.920049
1367050645209,0.913140
1367050705209,0.916385
1367050765209,0.916895
1367050825209,0.920839
1367050885209,0.910446
1367050945209,0.920245
1367051005209,0.922345
1367051065209,0.923582
1367051125209,0.914271
1367051185209,0.917451
1367051245209,0.919120
1367051305209,0.910323
1367051365209,0.922440
1367051425209,0.915565
1367051485209,0.925405
1367051545209,0.911875
1367051605209,0.912132
1367051665209,0.906925
1367051725209,0.910132
1367051785209,0.913772
1367051845209,0.913726
1367051905209,0.916812
1367051965209,0.911708
1367052025209,0.914542
1367052085209,0.908617
1367052145209,0.907526
1367052205209,0.910587
1367052265209,0.908247
1367052325209,0.917505
1367052385209,0.915255
1367052445209,0.908314
1367052505209,0.906987
1367052565209,0.913453
1367052625209,0.906419
1367052685209,0.905667
1367052745209,0.901827
1367052805209,0.911936
1367052865209,0.897648
1367052925209,0.911796
1367052985209,0.902847
1367053045209,0.909851
1367053105209,0.911389
1367053165209,0.907725
1367053225219,0.908678
1367053285219,0.904329
1367053345219,0.906243
1367053405219,0.903574
1367053465219,0.901298
1367053525219,0.902780
1367053585219,0.901672
1367053645219,0.902849
1367053705219,0.906590
1367053765219,0.907777
1367053825219,0.903445
1367053885219,0.901485
1367053945219,0.912425
1367054005219,0.911624
1367054065219,0.905519
1367054125219,0.911315
1367054185219,0.918063
1367054245219,0.908687
1367054305219,0.912313
1367054365219,0.899770
1367054425219,0.910549
1367054485219,0.913501
1367054545219,0.922161
1367054605219,0.926498
1367054665219,0.913201
1367054725219,0.928047
1367054785219,0.928292
1367054845219,0.930146
1367054905219,0.924588
1367054965219,0.922146
1367055025219,0.922555
1367055085219,0.931643
1367055145219,0.925825
1367055205219,0.928226
1367055265219,0.919717
1367055325219,0.928663
1367055385219,0.934666
1367055445219,0.931735
1367055505219,0.935159
1367055565219,0.926462
1367055625219,0.932585
1367055685219,0.922775
1367055745219,0.929441
1367055805219,0.919904
1367055865219,0.929405
1367055925219,0.925424
1367055985219,0.923421
1367056045219,0.917077
1367056105219,0.921982
1367056165219,0.912303
1367056225219,0.910304
1367056285219,0.918231
1367056345219,0.917550
1367056405219,0.915711
1367056465219,0.920085
1367056525219,0.920301
1367056585219,0.923180
1367056645219,0.924035
1367056705219,0.907188
1367056765219,0.910994
1367056825230,0.913078
1367056885230,0.914554
1367056945230,0.908287
1367057005230,0.912507
1367057065230,0.914479
1367057125230,0.911829
1367057185230,0.904468
1367057245230,0.905183
1367057305230,0.904906
1367057365230,0.904859
1367057425230,0.900538
1367057485230,0.907005
1367057545230,0.901221
1367057605230,0.907544
1367057665230,0.906697
1367057725230,0.903519
1367057785230,0.903250
1367057845230,0.896459
1367057905230,0.904209
1367057965230,0.898186
1367058025230,0.892729
1367058085230,0.893340
1367058145230,0.898678
1367058205230,0.894378
1367058265230,0.901793
1367058325230,0.900405
1367058385230,0.898844
1367058445230,0.891662
1367058505230,0.892687
1367058565230,0.896745
1367058625230,0.893804
1367058685230,0.893812
1367058745230,0.902068
1367058805230,0.903078
1367058865230,0.900605
1367058925230,0.903973
1367058985230,0.897539
1367059045230,0.904379
1367059105230,0.899428
1367059165230,0.897343
1367059225230,0.896207
1367059285230,0.898628
1367059345230,0.908379
1367059405230,0.909876
1367059465230,0.899783
1367059525230,0.900299
1367059585230,0.900373
1367059645230,0.907802
1367059705230,0.896062
1367059765230,0.891605
1367059825230,0.904101
1367059885230,0.886380
1367059945230,0.886500
1367060005230,0.893152
1367060065230,0.898181
1367060125230,0.902072
1367060185230,0.897593
1367060245230,0.889653
1367060305230,0.896742
1367060365230,0.906638
1367060425240,0.902297
1367060485240,0.913145
1367060545240,0.907572
1367060605240,0.911580
1367060665240,0.910881
1367060725240,0.914753
1367060785240,0.913028
1367060845240,0.921879
1367060905240,0.918999
1367060965240,0.918881
1367061025240,0.923378
1367061085240,0.922183
1367061145240,0.921077
1367061205240,0.917542
1367061265240,0.920632
1367061325240,0.920167
1367061385240,0.915592
1367061445240,0.925228
1367061505240,0.923767
1367061565240,0.925698
1367061625240,0.933264
1367061685240,0.915157
1367061745240,0.914551
1367061805240,0.922789
1367061865240,0.921218
1367061925240,0.920201
1367061985240,0.915707
1367062045240,0.923411
1367062105240,0.921895
1367062165240,0.912622
1367062225240,0.917956
1367062285240,0.915452
1367062345240,0.909890
1367062405240,0.924288
1367062465240,0.924243
1367062525240,0.912149
1367062585240,0.915866
1367062645240,0.914144
1367062705240,0.917780
1367062765240,0.917155
1367062825240,0.917650
1367062885240,0.914696
1367062945240,0.917405
1367063005240,0.919268
1367063065240,0.913473
1367063125240,0.911529
1367063185240,0.917829
1367063245240,0.915868
1367063305240,0.911650
1367063365240,0.909638
1367063425240,0.910976
1367063485240,0.913886
1367063545240,0.903209
1367063605240,0.908424
1367063665240,0.900084
1367063725240,0.902321
1367063785240,0.898895
1367063845240,0.907651
1367063905240,0.911721
1367063965240,0.908881
1367064025250,0.903445
1367064085250,0.901882
1367064145250,0.904840
1367064205250,0.902358
1367064265250,0.908548
1367064325250,0.899816
1367064385250,0.902822
1367064445250,0.901580
1367064505250,0.910423
1367064565250,0.905304
1367064625250,0.904922
1367064685250,0.909324
1367064745250,0.905744
1367064805250,0.913694
1367064865250,0.908738
1367064925250,0.910177
1367064985250,0.918530
1367065045250,0.922502
1367065105250,0.933087
1367065165250,0.930597
1367065225250,0.934469
1367065285250,0.952081
1367065345250,0.944601
1367065405250,0.952693
1367065465250,0.953109
1367065525250,0.956467
1367065585250,0.970022
1367065645250,0.968329
1367065705250,0.980547
1367065765250,0.970252
1367065825250,0.974996
1367065885250,0.967361
1367065945250,0.976164
1367066005250,0.980970
1367066065250,0.972593
1367066125250,0.976661
1367066185250,0.979712
1367066245250,0.974948
1367066305250,0.976898
1367066365250,0.975278
1367066425250,0.966854
1367066485250,0.961163
1367066545250,0.970589
1367066605250,0.964234
1367066665250,0.955818
1367066725250,0.954528
1367066785250,0.949051
1367066845250,0.951616
1367066905250,0.944568
1367066965250,0.950065
1367067025250,0.945370
1367067085250,0.944004
1367067145250,0.940936
1367067205250,0.932080
1367067265250,0.944847
1367067325250,0.939184
1367067385250,0.944721
1367067445250,0.936940
1367067505250,0.935174
1367067565250,0.936443
1367067625260,0.936778
1367067685260,0.938167
1367067745260,0.931789
1367067805260,0.929962
1367067865260,0.928694
1367067925260,0.927997
1367067985260,0.923475
1367068045260,0.931884
1367068105260,0.926695
1367068165260,0.924359
1367068225260,0.928367
1367068285260,0.929850
1367068345260,0.929743
1367068405260,0.927137
1367068465260,0.921553
1367068525260,0.920769
1367068585260,0.920190
1367068645260,0.929646
1367068705260,0.921654
1367068765260,0.920384
1367068825260,0.919072
1367068885260,0.928569
1367068945260,0.914967
1367069005260,0.919092
1367069065260,0.922370
1367069125260,0.922757
1367069185260,0.920111
1367069245260,0.917908
1367069305260,0.919288
1367069365260,0.918982
1367069425260,0.917044
1367069485260,0.929819
1367069545260,0.919066
1367069605260,0.920721
1367069665260,0.921697
1367069725260,0.923266
1367069785260,0.922837
1367069845260,0.931956
1367069905260,0.917801
1367069965260,0.922471
1367070025260,0.927663
1367070085260,0.916789
1367070145260,0.920345
1367070205260,0.924814
1367070265260,0.922526
1367070325260,0.920623
1367070385260,0.920366
1367070445260,0.924111
1367070505260,0.923648
1367070565260,0.926365
1367070625260,0.920745
1367070685260,0.931815
1367070745260,0.935642
1367070805260,0.932134
1367070865260,0.922406
1367070925260,0.932474
1367070985260,0.925482
1367071045260,0.935257
1367071105260,0.931793
1367071165260,0.937059
1367071225270,0.927351
1367071285270,0.935834
1367071345270,0.937237
1367071405270,0.940502
1367071465270,0.936806
1367071525270,0.937749
1367071585270,0.939721
1367071645270,0.938261
1367071705270,0.934909
1367071765270,0.931603
1367071825270,0.920536
1367071885270,0.933017
1367071945270,0.933693
1367072005270,0.924626
1367072065270,0.934163
1367072125270,0.928116
1367072185270,0.927056
1367072245270,0.929006
1367072305270,0.923783
1367072365270,0.930648
1367072425270,0.923676
1367072485270,0.925573
1367072545270,0.918926
1367072605270,0.927595
1367072665270,0.919192
1367072725270,0.928996
1367072785270,0.918830
1367072845270,0.923920
1367072905270,0.936232
1367072965270,0.920881
1367073025270,0.922966
1367073085270,0.919772
1367073145270,0.923332
1367073205270,0.925079
1367073265270,0.920363
1367073325270,0.915212
1367073385270,0.916801
1367073445270,0.911855
1367073505270,0.921146
1367073565270,0.920667
1367073625270,0.913742
1367073685270,0.918564
1367073745270,0.921696
1367073805270,0.916416
1367073865270,0.920422
1367073925270,0.920441
1367073985270,0.921919
1367074045270,0.915839
1367074105270,0.920620
1367074165270,0.914298
1367074225270,0.923463
1367074285270,0.924038
1367074345270,0.925679
1367074405270,0.921271
1367074465270,0.921393
1367074525270,0.920070
1367074585270,0.920304
1367074645270,0.915690
1367074705270,0.919669
1367074765270,0.925395
1367074825280,0.921852
1367074885280,0.916785
1367074945280,0.924492
1367075005280,0.922472
1367075065280,0.924855
1367075125280,0.920666
1367075185280,0.923035
1367075245280,0.929122
1367075305280,0.927003
1367075365280,0.923862
1367075425280,0.928657
1367075485280,0.930210
1367075545280,0.929821
1367075605280,0.931308
1367075665280,0.935221
1367075725280,0.942416
1367075785280,0.933056
1367075845280,0.939858
1367075905280,0.930704
1367075965280,0.938025
1367076025280,0.944569
1367076085280,0.941027
1367076145280,0.949891
1367076205280,0.941151
1367076265280,0.955825
1367076325280,0.957756
1367076385280,0.944610
1367076445280,0.960469
1367076505280,0.957410
1367076565280,0.959401
1367076625280,0.960378
1367076685280,0.960297
1367076745280,0.958954
1367076805280,0.955921
1367076865280,0.964819
1367076925280,0.962499
1367076985280,0.965665
1367077045280,0.963003
1367077105280,0.955702
1367077165280,0.957467
1367077225280,0.960649
1367077285280,0.961352
1367077345280,0.961319
1367077405280,0.956258
1367077465280,0.964545
1367077525280,0.947545
1367077585280,0.952801
1367077645280,0.961274
1367077705280,0.957082
1367077765280,0.959805
1367077825280,0.952996
1367077885280,0.949636
1367077945280,0.952046
1367078005280,0.952713
1367078065280,0.955068
1367078125280,0.955108
1367078185280,0.948353
1367078245280,0.943905
1367078305280,0.951049
1367078365280,0.952520
1367078425290,0.943764
1367078485290,0.952369
1367078545290,0.957650
1367078605290,0.953316
1367078665290,0.948060
1367078725290,0.945242
1367078785290,0.938233
1367078845290,0.937542
1367078905290,0.947676
1367078965290,0.936121
1367079025290,0.942119
1367079085290,0.951610
1367079145290,0.941521
1367079205290,0.931921
1367079265290,0.943418
1367079325290,0.938928
1367079385290,0.938758
1367079445290,0.938613
1367079505290,0.935989
1367079565290,0.936166
1367079625290,0.943165
1367079685290,0.936464
1367079745290,0.943194
1367079805290,0.941860
1367079865290,0.947701
1367079925290,0.955466
1367079985290,0.961402
1367080045290,0.962018
1367080105290,0.970994
1367080165290,0.977614
1367080225290,0.972677
1367080285290,0.969555
1367080345290,0.961684
1367080405290,0.975057
1367080465290,0.973359
1367080525290,0.958672
1367080585290,0.971944
1367080645290,0.966706
1367080705290,0.971685
1367080765290,0.959108
1367080825290,0.969543
1367080885290,0.967919
1367080945290,0.962421
1367081005290,0.958761
1367081065290,0.964048
1367081125290,0.962731
1367081185290,0.959973
1367081245290,0.964010
1367081305290,0.967105
1367081365290,0.953049
1367081425290,0.952776
1367081485290,0.956983
1367081545290,0.958070
1367081605290,0.956529
1367081665290,0.958429
1367081725290,0.952827
1367081785290,0.952691
1367081845290,0.951425
1367081905290,0.946335
1367081965290,0.949762
1367082025300,0.940117
1367082085300,0.956921
1367082145300,0.943709
1367082205300,0.939821
1367082265300,0.944263
1367082325300,0.945415
1367082385300,0.948161
1367082445300,0.944175
1367082505300,0.946655
1367082565300,0.944767
1367082625300,0.942441
1367082685300,0.945297
1367082745300,0.940908
1367082805300,0.939518
1367082865300,0.934959
1367082925300,0.934781
1367082985300,0.934505
1367083045300,0.938986
1367083105300,0.932800
1367083165300,0.929191
1367083225300,0.931805
1367083285300,0.938109
1367083345300,0.929765